Location: Newark
(36.0000°N, 138.0000°E)
Time: 20:20:46
(UTC+00:00)

ISS - Visible Passes

Search period start: 23 March 2019 00:00
Search period end: 02 April 2019 00:00
Orbit: 408 x 411 km, 51.6° (Epoch: 23 March)

Date Brightness Start Highest point End Pass type
(mag) Time Alt. Az. Time Alt. Az. Time Alt. Az.
23 Mar -2.6 10:01:49 10° WSW 10:04:58 42° NW 10:08:08 10° NE visible
24 Mar -0.8 10:49:42 10° NW 10:51:20 13° NNW 10:52:57 10° N visible
25 Mar -1.2 09:58:00 10° WNW 10:00:27 19° NNW 10:02:56 10° NNE visible
27 Mar -0.7 09:55:15 10° NW 09:56:05 11° NNW 09:56:55 10° N visible
